Tracking 30070 objects as of 15-Jan-2025
HD Live streaming from Space Station
objects crossing your sky now

CZ-3B DEB

Track CZ-3B DEB now!


NORAD ID: 42475
Int'l Code: 2011-077AQ
Perigee: 754.9 km
Apogee: 41,315.6 km
Inclination: 25.9 °
Period: 752.5 minutes
Semi major axis: 27406 km
RCS: Unknown
Launch date: December 19, 2011
Source: People's Republic of China (PRC)
Launch site: Xichang Space Center, China (XSC)

Note: This is SATELLITE DEBRIS
Your satellite tracking list
Your tracking list is empty




NASA's NSSDC Master Catalog

Two Line Element Set (TLE):
1 42475U 11077AQ  25007.44214595  .00000193  00000-0  21920-1 0  9994
2 42475  25.8938  87.0781 7399889 249.6471  22.0349  1.91350075 22821
Source of the keplerian elements: AFSPC